Regional Weather Roundup
Issued by NWS

Home | Current Version | Previous Version | Graphics & Text | Print | Product List | Glossary On
Versions: 1 2 3 4 5 6 7 8 9 10 11 12 13 14 15 16 17 18 19 20 21 22 23 24 25 26 27 28 29 30 31 32 33 34 35 36 37 38 39 40 41 42 43 44 45 46 47 48 49 50
000
ASUS43 KMPX 301910
RWRMN
WEATHER ROUNDUP FOR MINNESOTA
NATIONAL WEATHER SERVICE TWIN CITIES/CHANHASSEN MN
200 PM CDT SUN AUG 30 2015


NOTE: "FAIR" INDICATES FEW OR NO CLOUDS BELOW 12,000 FEET WITH NO
SIGNIFICANT WEATHER AND/OR OBSTRUCTIONS TO VISIBILITY. N/A MEANS
CURRENT SKY AND/OR WEATHER CONDITIONS ARE NOT AVAILABLE.

MNZ060>063-068>070-302000-
   Twin Cities Metro

CITY           SKY/WX    TMP DP  RH WIND       PRES   REMARKS
TWIN CITIES    MOSUNNY   77  62  59 S9        29.97F
ST PAUL        SUNNY     77  65  66 S9G17     29.97F
CRYSTAL        SUNNY     80  63  55 S12       29.94F
BLAINE         SUNNY     79  64  61 SE10      29.95F
LAKEVILLE      SUNNY     75  64  69 S8G16     29.98F
EDEN PRAIRIE   SUNNY     78  65  63 S9        29.96F
SOUTH ST PAUL  SUNNY     77  63  62 S9        29.97F
LAKE ELMO      FAIR      75  64  69 S13       29.99F
$$
MNZ001>005-007-008-013>017-022>024-027-028-302000-
   Northwest Minnesota

CITY           SKY/WX    TMP DP  RH WIND       PRES   REMARKS
BEMIDJI        MOSUNNY   80  67  63 S10       29.84F
HALLOCK        MOSUNNY   82  70  65 S20       29.70F
ROSEAU         MOSUNNY   84  73  70 S10       29.75F HX  91
WARROAD        MOSUNNY   82  73  74 S6        29.77F
THIEF RVR FALL SUNNY    N/A N/A N/A S15       29.76F
CROOKSTON      MOSUNNY   82  66  57 S18       29.75F
FOSSTON        SUNNY     84  64  51 S14       29.80F
DETROIT LAKES  SUNNY     81  66  61 S13       29.84F
MOORHEAD       SUNNY     82  66  57 S17       29.79F
PARK RAPIDS    SUNNY     82  66  58 S13       29.86F
MAHNOMEN       FAIR      82  67  61 SE10      29.81F
$$
MNZ006-009>011-018-025>026-302000-
   North Central Minnesota

CITY           SKY/WX    TMP DP  RH WIND       PRES   REMARKS
BAUDETTE       SUNNY     82  68  62 S12       29.79F
FLAG ISLAND    MOSUNNY   72  66  83 S10       29.76F
INTL FALLS     MOSUNNY   79  68  69 VRB6      29.82F
WASKISH        MOSUNNY   79  70  73 SE7       29.82F
BIG FORK       PTSUNNY   79  68  69 S9        29.86S
LONGVILLE      SUNNY     75  66  73 S8        29.88F
GRAND RAPIDS     N/A     77  64  65 S10       29.89F
CRANE LAKE     MOSUNNY   75  66  73 S5        29.87S
ORR            PTSUNNY   79  64  61 S2        29.84F
COOK           MOSUNNY   81  66  61 S6        29.87F
WALKER         FAIR      79  67  66 S9        29.86F
$$
MNZ012-019>021-037-302000-
   Northeast Minnesota

CITY           SKY/WX    TMP DP  RH WIND       PRES   REMARKS
DULUTH         SUNNY     78  65  63 SW10      29.91F
ELY            SUNNY     81  64  57 W6        29.88F
HIBBING        SUNNY     80  66  62 VRB6      29.88F
EVELETH        SUNNY     79  66  65 SW6       29.90F
DULUTH HARBOR  SUNNY     81  66  61 SW12      29.89S
TWO HARBORS    MOSUNNY   81  70  69 S10       29.88F
SILVER BAY     MOSUNNY   79  66  65 S8        29.87F
GRAND MARAIS     N/A     61  56  83 W6        29.86F
$$
MNZ029>031-032-039>041-046>048-054>057-064-302000-
   West Central Minnesota

CITY           SKY/WX    TMP DP  RH WIND       PRES   REMARKS
FERGUS FALLS   MOSUNNY   81  66  61 S14       29.83F
WHEATON        SUNNY     79  66  65 S14       29.85S
MORRIS         SUNNY     79  68  69 S16       29.87S
ALEXANDRIA     SUNNY     79  66  64 S13       29.90F
ELBOW LAKE     FAIR      78  68  71 S13       29.86S
WADENA         SUNNY     79  66  65 S12       29.87F
GLENWOOD       SUNNY     79  66  65 S13       29.91F
APPLETON       SUNNY     81  66  61 S12       29.87F
BENSON         SUNNY     79  64  61 S12       29.89F
MADISON        SUNNY     81  66  61 S10       29.88F
WILLMAR        FAIR      79  66  65 S12       29.93F
$$
MNZ033>034-036-042>043-049>051-058-059-302000-
   Central Minnesota

CITY           SKY/WX    TMP DP  RH WIND       PRES   REMARKS
ST CLOUD       SUNNY     77  65  66 S14       29.93F
SAUK CENTRE    FAIR      77  66  68 S13       29.91F
PAYNESVILLE    SUNNY     77  65  67 E9        29.93F
AITKIN         SUNNY     75  64  69 S12       29.90F
PINE RIVER     SUNNY     75  66  73 SE10      29.92F
BRAINERD       SUNNY     76  65  68 S10       29.90F
STAPLES        SUNNY     79  64  61 S12       29.89S
LONG PRAIRIE   FAIR      77  64  65 SE10      29.91F
LITTLE FALLS   SUNNY     77  63  61 SE10      29.91F
LITCHFIELD     SUNNY     79  68  69 SE8       29.95F
BUFFALO        SUNNY     76  64  65 SE8       29.96F
MAPLE LAKE     SUNNY     77  68  73 S5        29.95F
$$
MNZ037-044-045-052-053-302000-
   East Central Minnesota

CITY           SKY/WX    TMP DP  RH WIND       PRES   REMARKS
PRINCETON      SUNNY     79  64  61 S8        29.94F
MORA           SUNNY     73  63  68 S8        29.95F
CAMBRIDGE      SUNNY     81  64  57 S9        29.93F
RUSH CITY      SUNNY     76  65  67 S12       29.95S
MOOSE LAKE     SUNNY     77  64  65 S5        29.90F
HINCKLEY       FAIR      77  64  65 S8        29.94F
CLOQUET        SUNNY     77  63  61 S12       29.91F
MCGREGOR       SUNNY     77  64  65 S8        29.91F
$$
MNZ071>073-080-081-089-090-097-098-302000-
   Southwest Minnesota

CITY           SKY/WX    TMP DP  RH WIND       PRES   REMARKS
MONTEVIDEO     SUNNY     81  66  61 SW12G18   29.92F
GRANITE FALLS  SUNNY     79  67  66 SE14      29.93F
CANBY          SUNNY     82  65  55 S8        29.90F
MARSHALL       SUNNY     79  63  57 S13       29.94F
REDWOOD FALLS  SUNNY     80  66  62 S15       29.93F
OLIVIA         SUNNY     77  63  61 S12       29.93F
PIPESTONE      SUNNY     75  66  73 S13       29.97S
WINDOM         SUNNY     77  63  61 S9        29.98F
WORTHINGTON    SUNNY     73  64  73 S14       29.99F
JACKSON        SUNNY     77  64  65 S14       30.00F
TRACY          SUNNY     78  67  68 S14G20    29.95F
SLAYTON        SUNNY     77  66  69 S8        29.99S
$$
MNZ065>067-074>077-082>085-091>093-302000-
   South Central Minnesota

CITY           SKY/WX    TMP DP  RH WIND       PRES   REMARKS
MANKATO        SUNNY     73  63  68 S13G18    29.99S
NEW ULM        SUNNY     75  64  69 S14       29.96F
ST JAMES       SUNNY     77  66  69 S12       29.99S
FAIRMONT       SUNNY     75  63  64 S14       30.00S
GLENCOE        SUNNY     78  67  69 S8        29.96F
FARIBAULT      SUNNY     75  66  73 S10       30.00F
OWATONNA       SUNNY     75  64  69 S12       30.01F
WASECA         SUNNY     72  63  73 S13       30.02F
ALBERT LEA     SUNNY     72  64  78 S8        30.03F
$$
MNZ078>079-086>088-094>096-302000-
   Southeast Minnesota

CITY           SKY/WX    TMP DP  RH WIND       PRES   REMARKS
ROCHESTER      PTSUNNY   70  64  81 S14       30.05F
RED WING       SUNNY     77  63  61 S8        29.98F
STANTON        SUNNY     77  65  65 S7        29.98F
DODGE CENTER   MOSUNNY   70  63  78 S12       30.03F
WINONA         CLOUDY    70  63  78 SW5       30.04F
AUSTIN         PTSUNNY   72  64  78 S12       30.04F
PRESTON        CLOUDY    68  62  79 S8        30.07S
$$
ABBREVIATIONS USED IN REMARKS
   TC - TEMPERATURES IN CELSIUS
  WCI - WIND CHILL INDEX
   HX - HEAT INDEX
  VSB - VISIBILITY
$$


USA.gov is the U.S. government's official web portal to all federal, state and local government web resources and services.